Location: Caltech
(34.1382°N, 118.1253°W)
Time: 06:33:17
(UTC-07:00)

AO-7 - Visible Passes

Search period start: 21 October 2014 00:00
Search period end: 31 October 2014 00:00
Orbit: 1440 x 1459 km, 101.5° (Epoch: 19 October)

Date Brightness Start Highest point End Pass type
(mag) Time Alt. Az. Time Alt. Az. Time Alt. Az.
21 Oct ? 04:30:32 10° NNE 04:38:13 40° E 04:45:53 10° SSE visible
21 Oct ? 06:23:19 10° N 06:30:52 40° WNW 06:38:25 10° SW visible
22 Oct ? 03:33:45 10° ENE 03:37:41 14° E 03:41:36 10° ESE visible
22 Oct ? 05:22:57 10° NNE 05:31:19 88° ESE 05:39:40 10° SSW visible
23 Oct ? 04:23:45 10° NE 04:31:15 36° E 04:38:43 10° SSE visible
23 Oct ? 06:16:17 10° N 06:24:00 44° WNW 06:31:44 10° SW visible
24 Oct ? 03:27:50 10° ENE 03:30:39 12° E 03:33:28 10° ESE visible
24 Oct ? 05:16:02 10° NNE 05:24:24 80° ESE 05:32:45 10° SSW visible
25 Oct ? 04:17:01 10° NE 04:24:17 33° E 04:31:30 10° SSE visible
25 Oct ? 06:09:16 10° N 06:17:09 49° WNW 06:25:02 10° SW visible
26 Oct ? 05:09:08 10° NNE 05:17:29 73° ESE 05:25:48 10° S visible
27 Oct ? 04:10:19 10° NE 04:17:18 29° E 04:24:14 10° SSE visible
27 Oct ? 06:02:16 10° N 06:10:16 54° WNW 06:18:17 10° SW visible
28 Oct ? 05:02:15 10° NNE 05:10:33 66° ESE 05:18:49 10° S visible
29 Oct ? 04:03:39 10° NE 04:10:19 26° E 04:16:56 10° SSE visible
29 Oct ? 05:55:16 10° N 06:03:24 60° WNW 06:11:31 10° SW visible
30 Oct ? 04:55:23 10° NNE 05:03:37 60° ESE 05:11:48 10° S visible
